Date String (YYYY-MM-DD hh:mm:ss) UTC,Instrument flags,Ambient pressure (hPa),Sample flow (lpm),Bypass flow (lpm),Sample temperature (°C),Ambient temperature (°C),ASC tube jacket temperature (°C),LED temperature (°C),Box temperature (°C),Sample RH (%),Span deviation,Mass concentration (μg/m³),Mass concentration (μg/m³),Mass concentration (μg/m³)
DateTimeUTC,F1_M11,P_M11,Q1_M11,Q2_M11,T1_M11,T2_M11,T3_M11,T4_M11,T5_M11,U1_M11,ZSPAN_M11,X2_M11,X0_M11,X1_M11
2023-01-18 22:00:00,,0817.1,4.99,0.00,21.4,19.2,00.0,30.4,22.9,16.5,0000.0,0003.13,0004.26,0002.84
2023-01-18 22:01:00,,0816.9,5.01,0.00,21.4,19.1,00.0,30.4,22.8,16.5,0000.0,0003.14,0004.29,0002.87
2023-01-18 22:02:00,,0816.9,5.00,0.00,21.3,19.0,00.0,30.4,22.8,16.6,0000.0,0003.13,0004.27,0002.87
2023-01-18 22:03:00,,0816.9,5.00,0.00,21.3,19.2,00.0,30.3,22.8,16.6,0000.0,0003.12,0004.22,0002.89
2023-01-18 22:04:00,,0816.9,5.01,0.00,21.4,20.6,00.0,30.3,23.1,16.6,0000.0,0003.13,0004.21,0002.91
2023-01-18 22:05:00,,0816.9,5.00,0.00,21.5,21.7,00.0,30.3,23.4,16.4,0000.0,0003.14,0004.16,0002.92
2023-01-18 22:06:00,,0816.8,4.98,0.00,21.6,21.5,00.0,30.4,23.5,16.3,0000.0,0003.15,0004.20,0002.93
2023-01-18 22:07:00,,0817.2,5.00,0.00,21.6,21.0,00.0,30.4,23.4,16.4,0000.0,0003.17,0004.28,0002.94
2023-01-18 22:08:00,,0817.3,4.99,0.00,21.6,20.6,00.0,30.4,23.3,16.4,0000.0,0003.19,0004.38,0002.96
2023-01-18 22:09:00,,0817.2,5.01,0.00,21.6,20.3,00.0,30.4,23.2,16.4,0000.0,0003.22,0004.53,0002.98
2023-01-18 22:10:00,,0817.2,4.98,0.00,21.6,20.0,00.0,30.4,23.2,16.4,0000.0,0003.24,0004.54,0003.00
2023-01-18 22:11:00,,0817.3,5.01,0.00,21.5,19.8,00.0,30.4,23.1,16.4,0000.0,0003.24,0004.63,0002.99
2023-01-18 22:12:00,,0817.4,5.02,0.00,21.5,19.6,00.0,30.4,23.0,16.4,0000.0,0003.22,0004.57,0002.98
2023-01-18 22:13:00,,0817.0,5.00,0.00,21.5,19.5,00.0,30.4,23.0,16.4,0000.0,0003.21,0004.52,0002.97
2023-01-18 22:14:00,,0816.9,5.00,0.00,21.4,19.4,00.0,30.4,22.9,16.5,0000.0,0003.21,0004.48,0002.96
2023-01-18 22:15:00,,0816.9,4.99,0.00,21.4,19.4,00.0,30.3,22.9,16.5,0000.0,0003.17,0004.36,0002.93
2023-01-18 22:16:00,,0816.9,5.01,0.00,21.4,19.3,00.0,30.3,22.9,16.5,0000.0,0003.16,0004.30,0002.93
2023-01-18 22:17:00,,0816.9,5.02,0.00,21.3,19.3,00.0,30.3,22.8,16.6,0000.0,0003.18,0004.28,0002.97
2023-01-18 22:18:00,,0816.9,5.01,0.00,21.3,19.5,00.0,30.3,22.8,16.7,0000.0,0003.18,0004.22,0003.00
2023-01-18 22:19:00,,0817.0,5.00,0.00,21.4,20.9,00.0,30.3,23.1,16.6,0000.0,0003.18,0004.19,0003.01
2023-01-18 22:20:00,,0817.0,4.99,0.00,21.5,22.0,00.0,30.3,23.5,16.5,0000.0,0003.18,0004.11,0003.03
2023-01-18 22:21:00,,0816.9,4.99,0.00,21.6,21.8,00.0,30.3,23.5,16.5,0000.0,0003.17,0004.00,0003.04
2023-01-18 22:22:00,,0817.0,4.99,0.00,21.6,21.3,00.0,30.4,23.4,16.5,0000.0,0003.18,0004.00,0003.06
2023-01-18 22:23:00,,0817.0,5.00,0.00,21.6,20.8,00.0,30.4,23.3,16.5,0000.0,0003.20,0004.06,0003.08
2023-01-18 22:24:00,,0817.0,5.00,0.00,21.6,20.5,00.0,30.4,23.2,16.6,0000.0,0003.21,0004.10,0003.10
2023-01-18 22:25:00,,0817.0,5.01,0.00,21.6,20.2,00.0,30.4,23.2,16.6,0000.0,0003.25,0004.24,0003.13
2023-01-18 22:26:00,,0817.0,5.00,0.00,21.6,20.0,00.0,30.4,23.2,16.7,0000.0,0003.29,0004.36,0003.14
2023-01-18 22:27:00,,0817.1,5.00,0.00,21.6,19.9,00.0,30.4,23.1,16.7,0000.0,0003.33,0004.59,0003.15
2023-01-18 22:28:00,,0817.1,5.00,0.00,21.5,19.8,00.0,30.4,23.1,16.8,0000.0,0003.32,0004.65,0003.13
2023-01-18 22:29:00,,0817.1,5.00,0.00,21.5,19.6,00.0,30.4,23.1,16.8,0000.0,0003.32,0004.71,0003.10
2023-01-18 22:30:00,,0817.1,5.01,0.00,21.5,19.6,00.0,30.4,23.1,16.8,0000.0,0003.33,0004.88,0003.07
2023-01-18 22:31:00,,0817.1,5.00,0.00,21.5,19.5,00.0,30.3,23.0,16.7,0000.0,0003.29,0004.75,0002.99
2023-01-18 22:32:00,,0817.2,5.01,0.00,21.4,19.5,00.0,30.3,23.0,16.7,0000.0,0003.27,0004.74,0002.93
2023-01-18 22:33:00,,0817.2,5.01,0.00,21.4,19.5,00.0,30.3,23.0,16.7,0000.0,0003.24,0004.53,0002.89
2023-01-18 22:34:00,,0817.2,5.00,0.00,21.4,19.4,00.0,30.3,22.9,16.7,0000.0,0003.21,0004.40,0002.86
2023-01-18 22:35:00,,0817.3,5.03,0.00,21.4,20.1,00.0,30.3,23.0,16.7,0000.0,0003.19,0004.34,0002.83
2023-01-18 22:36:00,,0817.4,4.99,0.00,21.5,21.5,00.0,30.3,23.4,16.6,0000.0,0003.15,0004.22,0002.78
2023-01-18 22:37:00,,0817.4,5.00,0.00,21.6,22.0,00.0,30.3,23.6,16.5,0000.0,0003.13,0004.22,0002.75
2023-01-18 22:38:00,,0817.4,4.99,0.00,21.7,21.6,00.0,30.3,23.6,16.5,0000.0,0003.09,0004.12,0002.73
2023-01-18 22:39:00,,0817.4,5.01,0.00,21.7,21.1,00.0,30.4,23.5,16.5,0000.0,0003.09,0004.07,0002.72
2023-01-18 22:40:00,,0817.5,5.01,0.00,21.7,20.7,00.0,30.4,23.4,16.5,0000.0,0003.12,0004.22,0002.72
2023-01-18 22:41:00,,0817.5,5.00,0.00,21.7,20.4,00.0,30.4,23.4,16.6,0000.0,0003.07,0003.98,0002.72
2023-01-18 22:42:00,,0817.5,5.00,0.00,21.7,20.2,00.0,30.4,23.3,16.6,0000.0,0003.10,0004.39,0002.76
2023-01-18 22:43:00,,0817.6,4.99,0.00,21.6,20.1,00.0,30.4,23.3,16.6,0000.0,0003.14,0005.67,0002.80
2023-01-18 22:44:00,,0817.5,5.01,0.00,21.6,19.9,00.0,30.4,23.2,16.7,0000.0,0003.20,0005.94,0002.86
2023-01-18 22:45:00,,0817.5,5.00,0.00,21.6,19.8,00.0,30.4,23.2,16.8,0000.0,0003.25,0006.08,0002.91
2023-01-18 22:46:00,,0817.6,4.99,0.00,21.6,19.7,00.0,30.4,23.2,16.8,0000.0,0003.29,0006.90,0002.97
2023-01-18 22:47:00,,0817.5,5.00,0.00,21.5,19.6,00.0,30.4,23.1,16.9,0000.0,0003.36,0007.43,0003.05
2023-01-18 22:48:00,,0817.4,5.01,0.00,21.5,19.3,00.0,30.4,22.9,16.9,0000.0,0003.43,0007.60,0003.13
2023-01-18 22:49:00,,0817.5,5.01,0.00,21.4,19.1,00.0,30.4,22.8,17.0,0000.0,0003.48,0007.75,0003.17
2023-01-18 22:50:00,,0817.5,4.99,0.00,21.3,18.8,00.0,30.3,22.7,17.1,0000.0,0003.52,0007.92,0003.20
2023-01-18 22:51:00,,0817.5,5.01,0.00,21.3,19.7,00.0,30.3,22.8,17.2,0000.0,0003.53,0007.91,0003.24
2023-01-18 22:52:00,,0817.5,4.99,0.00,21.4,21.2,00.0,30.2,23.2,17.2,0000.0,0003.57,0007.98,0003.28
2023-01-18 22:53:00,,0817.5,5.00,0.00,21.6,22.2,00.0,30.3,23.5,17.1,0000.0,0003.63,0007.95,0003.33
2023-01-18 22:54:00,,0817.6,5.00,0.00,21.6,21.8,00.0,30.3,23.5,17.1,0000.0,0003.67,0007.32,0003.39
2023-01-18 22:55:00,,0817.6,4.99,0.00,21.6,21.1,00.0,30.3,23.4,17.1,0000.0,0003.72,0007.28,0003.46
2023-01-18 22:56:00,,0817.6,5.01,0.00,21.6,20.5,00.0,30.4,23.2,17.1,0000.0,0003.77,0008.10,0003.51
2023-01-18 22:57:00,,0817.5,5.01,0.00,21.5,20.0,00.0,30.4,23.1,17.2,0000.0,0003.82,0007.82,0003.54
2023-01-18 22:58:00,,0817.6,4.99,0.00,21.5,19.6,00.0,30.3,22.9,17.3,0000.0,0003.82,0007.58,0003.55
2023-01-18 22:59:00,,0817.7,4.99,0.00,21.4,19.2,00.0,30.3,22.8,17.3,0000.0,0003.81,0007.54,0003.55
